| time (UTC) | temp C | wind direction | speed KPH | gust KPH | rain 1hr cm | rain 24hr cm | rain mn cm | humidity % | barometer mb |
| 20260506011525 | 8 | 108 | 0.0 | 3.2 | 0.00 | 0.00 | 0.00 | 78 | |
| 20260506010526 | 8 | 6 | 0.0 | 3.2 | 0.00 | 0.00 | 0.00 | 78 | |
| 20260506005526 | 8 | 354 | 1.6 | 3.2 | 0.00 | 0.00 | 0.00 | 77 | |
| 20260506004525 | 9 | 70 | 1.6 | 4.8 | 0.00 | 0.00 | 0.00 | 77 | |
| 20260506003525 | 9 | 125 | 1.6 | 4.8 | 0.00 | 0.00 | 0.00 | 77 | |
| 20260506002525 | 9 | 128 | 1.6 | 4.8 | 0.00 | 0.00 | 0.00 | 78 | |
| 20260506001525 | 9 | 174 | 1.6 | 3.2 | 0.00 | 0.00 | 0.00 | 79 | |
| 20260506000525 | 9 | 174 | 1.6 | 6.4 | 0.00 | 0.00 | 0.00 | 79 | |
| 20260505235525 | 10 | 153 | 1.6 | 6.4 | 0.00 | 0.00 | 0.00 | 79 | |
| 20260505234525 | 10 | 162 | 0.0 | 3.2 | 0.00 | 0.00 | 0.00 | 80 | |
| 20260505233525 | 10 | 163 | 1.6 | 3.2 | 0.00 | 0.00 | 0.00 | 80 | |
| 20260505232526 | 10 | 0.0 | 0.0 | 0.00 | 0.00 | 0.00 | 79 | ||
| 20260505231526 | 10 | 351 | 1.6 | 8.0 | 0.00 | 0.00 | 0.00 | 79 | |
| 20260505230526 | 10 | 118 | 3.2 | 6.4 | 0.00 | 0.00 | 0.00 | 78 | |
| 20260505225026 | 10 | 107 | 0.0 | 4.8 | 0.00 | 0.00 | 0.00 | 80 | |
| 20260505224026 | 9 | 354 | 0.0 | 4.8 | 0.00 | 0.00 | 0.00 | 82 | |
| 20260505223026 | 9 | 0.0 | 0.0 | 0.00 | 0.00 | 0.00 | 84 | ||
| 20260505222027 | 9 | 0.0 | 0.0 | 0.00 | 0.00 | 0.00 | 85 | ||
| 20260505221026 | 8 | 0.0 | 0.0 | 0.00 | 0.00 | 0.00 | 85 | ||
| 20260505220026 | 8 | 0.0 | 0.0 | 0.00 | 0.00 | 0.00 | 86 | ||
| 20260505215026 | 8 | 0.0 | 0.0 | 0.00 | 0.00 | 0.00 | 85 | ||
| 20260505214026 | 9 | 0.0 | 0.0 | 0.00 | 0.00 | 0.00 | 84 | ||
| 20260505213026 | 9 | 0.0 | 0.0 | 0.00 | 0.00 | 0.00 | 83 | ||
| 20260505212026 | 10 | 0.0 | 0.0 | 0.00 | 0.00 | 0.00 | 81 | ||
| 20260505211026 | 10 | 0.0 | 0.0 | 0.00 | 0.00 | 0.00 | 80 | ||
| 20260505210026 | 10 | 0.0 | 0.0 | 0.00 | 0.00 | 0.00 | 78 | ||
| 20260505205026 | 10 | 0.0 | 0.0 | 0.00 | 0.00 | 0.00 | 76 | ||
| 20260505204026 | 10 | 312 | 0.0 | 3.2 | 0.00 | 0.00 | 0.00 | 75 | |
| 20260505203026 | 11 | 0.0 | 0.0 | 0.00 | 0.00 | 0.00 | 75 | ||
| 20260505202026 | 11 | 312 | 0.0 | 3.2 | 0.00 | 0.00 | 0.00 | 75 | |
| 20260505201026 | 11 | 310 | 3.2 | 4.8 | 0.00 | 0.00 | 0.00 | 74 | |
| 20260505200026 | 11 | 306 | 0.0 | 3.2 | 0.00 | 0.00 | 0.00 | 74 | |
| 20260505195026 | 11 | 306 | 1.6 | 3.2 | 0.00 | 0.00 | 0.00 | 72 | |
| 20260505194026 | 11 | 312 | 1.6 | 3.2 | 0.00 | 0.00 | 0.00 | 71 | |
| 20260505193026 | 11 | 312 | 1.6 | 3.2 | 0.00 | 0.00 | 0.00 | 71 | |
| 20260505192026 | 12 | 317 | 1.6 | 6.4 | 0.00 | 0.00 | 0.00 | 70 | |
| 20260505191025 | 12 | 318 | 3.2 | 6.4 | 0.00 | 0.00 | 0.00 | 69 | |
| 20260505190025 | 12 | 307 | 3.2 | 6.4 | 0.00 | 0.00 | 0.00 | 68 | |
| 20260505185025 | 12 | 313 | 4.8 | 9.7 | 0.00 | 0.00 | 0.00 | 66 | |
| 20260505184025 | 12 | 327 | 3.2 | 6.4 | 0.00 | 0.00 | 0.00 | 64 | |
| 20260505183025 | 12 | 300 | 1.6 | 3.2 | 0.00 | 0.00 | 0.00 | 64 | |
| 20260505182025 | 12 | 304 | 3.2 | 4.8 | 0.00 | 0.00 | 0.00 | 64 | |
| 20260505181025 | 12 | 306 | 6.4 | 11.3 | 0.00 | 0.00 | 0.00 | 63 | |
| 20260505180025 | 13 | 311 | 3.2 | 8.0 | 0.00 | 0.00 | 0.00 | 62 | |
| 20260505175025 | 13 | 348 | 3.2 | 8.0 | 0.00 | 0.00 | 0.00 | 62 | |
| 20260505174024 | 13 | 346 | 1.6 | 6.4 | 0.00 | 0.00 | 0.00 | 63 | |
| 20260505173025 | 13 | 310 | 3.2 | 9.7 | 0.00 | 0.00 | 0.00 | 62 | |
| 20260505172025 | 13 | 314 | 4.8 | 9.7 | 0.00 | 0.00 | 0.00 | 61 | |
| 20260505171026 | 13 | 323 | 4.8 | 11.3 | 0.00 | 0.00 | 0.00 | 63 | |
| 20260505170024 | 13 | 37 | 3.2 | 8.0 | 0.00 | 0.00 | 0.00 | 61 | |
| 20260505165025 | 13 | 302 | 3.2 | 6.4 | 0.00 | 0.00 | 0.00 | 59 | |
| 20260505164025 | 13 | 311 | 4.8 | 9.7 | 0.00 | 0.00 | 0.00 | 58 | |
| 20260505163025 | 13 | 294 | 4.8 | 9.7 | 0.00 | 0.00 | 0.00 | 58 | |
| 20260505162025 | 13 | 312 | 6.4 | 12.9 | 0.00 | 0.00 | 0.00 | 57 | |
| 20260505161025 | 13 | 314 | 4.8 | 9.7 | 0.00 | 0.00 | 0.00 | 57 | |
| 20260505153024 | 14 | 308 | 4.8 | 9.7 | 0.00 | 0.00 | 0.00 | 56 | |
| 20260505152024 | 14 | 301 | 4.8 | 8.0 | 0.00 | 0.00 | 0.00 | 56 | |
| 20260505151024 | 14 | 309 | 4.8 | 9.7 | 0.00 | 0.00 | 0.00 | 57 | |
| 20260505125022 | 15 | 320 | 4.8 | 14.5 | 0.00 | 0.00 | 0.00 | 53 | |
| 20260505124022 | 15 | 318 | 4.8 | 11.3 | 0.00 | 0.00 | 0.00 | 52 | |
| 20260505123023 | 14 | 314 | 4.8 | 8.0 | 0.00 | 0.00 | 0.00 | 55 | |
| 20260505122022 | 14 | 327 | 4.8 | 12.9 | 0.00 | 0.00 | 0.00 | 56 | |
| 20260505121022 | 13 | 349 | 4.8 | 8.0 | 0.00 | 0.00 | 0.00 | 57 | |
| 20260505120023 | 13 | 329 | 4.8 | 9.7 | 0.00 | 0.00 | 0.00 | 58 | |
| 20260505115022 | 13 | 327 | 3.2 | 6.4 | 0.00 | 0.00 | 0.00 | 59 | |
| 20260505114022 | 13 | 318 | 4.8 | 9.7 | 0.00 | 0.00 | 0.00 | 59 | |
| 20260505113023 | 13 | 327 | 3.2 | 6.4 | 0.00 | 0.00 | 0.00 | 61 | |
| 20260505112023 | 13 | 310 | 3.2 | 6.4 | 0.00 | 0.00 | 0.00 | 61 | |
| 20260505111023 | 13 | 339 | 4.8 | 8.0 | 0.00 | 0.00 | 0.00 | 63 | |
| 20260505102022 | 13 | 352 | 4.8 | 8.0 | 0.00 | 0.00 | 0.00 | 66 | |
| 20260505101022 | 12 | 323 | 3.2 | 9.7 | 0.00 | 0.00 | 0.00 | 69 | |
| 20260505100022 | 13 | 39 | 4.8 | 9.7 | 0.00 | 0.00 | 0.00 | 65 | |
| 20260505095022 | 13 | 331 | 4.8 | 9.7 | 0.00 | 0.00 | 0.00 | 65 | |
| 20260505094022 | 12 | 326 | 4.8 | 9.7 | 0.00 | 0.00 | 0.00 | 68 | |
| 20260505093022 | 12 | 325 | 4.8 | 8.0 | 0.00 | 0.00 | 0.00 | 70 | |
| 20260505092022 | 12 | 320 | 4.8 | 9.7 | 0.00 | 0.00 | 0.00 | 72 | |
| 20260505091022 | 11 | 308 | 6.4 | 12.9 | 0.00 | 0.00 | 0.00 | 74 | |
| 20260505090022 | 11 | 315 | 4.8 | 8.0 | 0.00 | 0.00 | 0.00 | 74 | |
| 20260505085022 | 10 | 313 | 6.4 | 16.1 | 0.00 | 0.00 | 0.00 | 78 | |
| 20260505084021 | 10 | 308 | 3.2 | 9.7 | 0.00 | 0.00 | 0.00 | 79 | |
| 20260505083021 | 10 | 306 | 3.2 | 6.4 | 0.00 | 0.00 | 0.00 | 80 |